EHI
0 0 0 0 0 0 0 0 0 0 0 0 1 3 4 5 8 13 19 25 29 31 34 36 33 29 28 27 26 22 20 21 22 18 14 13 11 10 9 10 14 18 17 15
0 0 0 0 0 0 0 0 0 0 0 0 0 1 3 5 8 12 17 21 25 30 37 40 38 35 33 31 29 24 22 22 21 18 14 13 13 13 11 11 15 19 19 18
0 0 0 0 0 0 0 0 0 0 0 0 0 0 1 4 8 11 14 17 21 28 37 42 43 41 40 38 34 30 30 30 28 25 21 18 19 18 15 14 17 20 21 21
0 0 0 0 0 0 0 0 0 0 0 0 0 0 1 3 7 10 13 16 20 24 31 40 45 45 46 44 41 39 40 41 40 37 32 29 28 23 19 18 19 21 22 22
0 0 0 0 0 0 0 0 0 0 0 0 0 0 1 2 5 8 12 16 19 21 26 37 45 47 48 48 46 47 49 52 51 45 41 38 32 25 22 20 21 21 22 21
0 0 0 0 0 0 0 0 0 0 0 0 0 0 0 2 5 8 11 14 18 20 25 35 43 48 51 51 50 52 59 63 60 52 47 42 35 28 23 23 23 20 19 20
0 0 0 0 0 0 0 0 0 0 0 0 0 0 1 2 5 9 11 12 16 20 25 32 42 50 53 54 55 60 68 72 68 60 51 46 40 31 26 24 22 19 18 17
0 0 0 0 0 0 0 0 0 0 0 0 0 1 2 4 6 9 11 13 17 21 24 29 39 49 53 53 56 61 68 71 69 63 57 51 44 34 26 22 20 19 17 15
0 0 0 0 0 0 0 0 0 0 0 0 0 1 3 5 8 10 13 16 20 23 24 27 33 41 46 47 50 55 60 63 62 60 56 51 44 34 25 21 20 19 18 17
0 0 0 0 0 0 0 0 0 0 0 0 0 1 4 7 10 12 14 18 23 25 26 27 30 35 38 41 45 49 52 55 54 52 48 42 39 35 27 23 22 21 22 22
0 0 0 0 0 0 0 0 0 0 0 0 0 1 4 8 12 13 16 21 25 28 29 28 31 35 37 39 45 48 49 48 47 44 41 38 37 36 33 28 25 24 24 24
0 0 0 0 0 0 0 0 0 0 0 0 0 1 4 9 12 15 19 23 28 33 32 30 32 36 39 43 48 50 48 45 41 38 37 38 39 40 38 32 28 26 24 23
0 0 0 0 0 0 0 0 0 0 0 0 0 2 6 9 13 18 23 27 32 36 35 33 34 37 41 46 50 50 47 44 40 37 37 37 39 42 40 35 29 26 23 22
0 0 0 0 0 0 0 0 0 0 0 0 0 2 6 10 14 20 27 33 35 36 35 33 36 39 42 45 48 47 46 45 43 40 37 36 37 39 38 35 29 25 22 21
0 0 0 0 0 0 0 0 0 0 0 0 0 2 5 11 16 23 30 35 37 34 33 34 38 40 42 44 45 46 46 45 43 38 34 32 32 32 32 30 26 21 18 17
0 0 0 0 0 0 0 0 0 0 0 0 0 2 7 12 19 25 31 36 37 34 33 36 40 41 42 43 44 46 46 43 38 32 27 24 24 25 25 23 19 15 13 13
0 0 0 0 0 0 0 0 0 0 0 0 1 4 9 15 21 25 30 35 38 36 34 35 36 38 40 40 41 42 41 37 32 26 21 19 20 20 19 18 15 12 11 12
0 0 0 0 0 0 1 1 1 1 1 1 2 5 9 15 19 22 25 31 37 38 33 30 30 31 33 34 34 34 33 29 26 22 19 19 19 19 18 19 19 16 13 13
0 0 0 0 0 0 1 2 3 3 2 2 4 6 9 12 14 15 18 26 34 35 29 27 26 27 28 29 28 28 25 22 20 19 18 19 20 19 20 21 21 19 17 17
0 0 0 0 0 1 2 4 5 4 4 5 8 11 11 10 13 16 18 25 31 30 27 26 27 27 27 28 28 26 23 21 19 18 18 18 19 19 19 19 19 19 19 19
0 0 0 0 0 1 4 6 6 7 7 9 11 15 15 14 18 22 24 27 29 29 26 26 27 26 25 25 27 27 25 24 22 19 18 17 17 16 16 17 18 18 17 16
2 1 1 1 1 3 7 9 10 10 11 11 13 17 18 19 23 26 27 26 27 28 26 25 25 22 20 21 24 25 24 23 21 19 16 15 14 12 13 15 15 15 14 13
5 4 3 4 5 7 10 13 14 13 12 12 14 16 18 18 20 22 22 21 23 24 22 21 20 19 19 20 21 20 18 17 15 14 13 12 11 11 11 11 9 8 9 9
6 5 6 8 10 10 11 13 13 12 11 12 13 13 14 13 13 14 15 16 18 18 18 18 18 18 19 19 18 16 14 11 9 9 9 9 9 9 8 7 4 3 3 5
4 4 6 9 10 11 11 10 10 10 9 9 10 10 12 12 10 10 12 13 14 15 16 16 16 16 16 16 14 13 11 9 7 6 6 5 6 5 4 3 1 1 1 2
3 4 5 7 9 11 11 8 8 10 9 7 7 9 12 12 10 10 12 12 14 15 15 15 14 14 14 12 10 10 9 8 7 6 3 2 2 2 1 1 0 0 1 0
Wind_Speed
11 12 14 15 14 9 8 11 10 7 5 8 9 7 7 8 10 11 12 13 14 13 14 14 13 13 12 12 12 12 12 10 9 7 7 7 7 6 5 5 6 6 6 6
11 15 13 10 10 9 10 12 10 7 5 7 8 9 7 9 11 11 12 13 14 14 13 14 14 14 14 13 13 13 12 12 11 8 7 5 5 5 5 4 5 6 7 7
16 8 10 11 13 14 13 12 10 8 6 7 8 11 10 9 10 10 11 12 13 14 15 15 15 15 15 15 15 13 13 13 12 10 8 6 5 5 5 6 6 6 7 8
14 7 12 15 15 14 12 9 8 9 9 8 9 10 11 11 11 12 12 12 13 14 15 15 16 16 16 15 14 14 13 13 12 12 10 10 8 7 7 6 5 6 7 7
11 12 15 16 15 14 8 7 9 10 10 9 10 11 8 10 11 12 12 13 13 14 14 15 16 16 15 15 14 14 14 13 13 12 11 11 9 7 5 6 6 6 6 7
8 9 12 12 11 12 8 9 7 8 10 13 12 11 9 9 10 9 9 11 11 13 14 14 13 14 13 14 14 14 14 14 13 13 12 11 10 9 8 7 6 7 6 6
11 12 10 10 14 14 14 13 9 11 11 10 8 10 7 3 5 6 7 8 9 11 12 13 13 13 13 14 14 13 14 14 13 13 12 12 11 10 10 9 8 7 6 5
14 15 15 14 15 13 17 17 10 9 11 8 8 10 5 3 3 4 5 5 6 9 10 11 12 12 12 13 12 12 13 13 13 13 12 11 11 8 7 8 7 6 5 5
13 11 14 13 13 13 17 16 12 8 7 8 9 7 5 5 6 5 5 5 6 7 8 10 10 10 10 11 11 11 12 11 11 12 11 10 10 9 8 7 7 6 5 5
7 10 13 13 11 11 12 14 9 10 9 11 9 10 7 10 8 7 6 5 5 5 6 7 8 8 8 8 9 9 9 10 10 10 9 8 9 9 8 7 7 6 5 5
8 9 13 14 15 16 13 16 12 11 9 9 8 6 4 6 5 6 5 5 5 5 6 6 6 7 7 7 8 8 8 8 8 8 8 8 8 8 8 7 6 6 5 5
9 8 11 14 9 9 14 14 15 12 9 9 7 5 6 4 4 4 5 6 5 5 5 5 6 6 6 6 7 7 7 8 8 7 7 7 7 7 7 6 6 5 5 5
9 7 10 12 11 10 14 13 14 12 9 10 10 5 8 5 4 4 5 6 6 5 5 5 5 6 6 6 6 6 6 6 6 7 7 6 6 6 6 6 5 5 4 4
8 8 10 10 10 15 15 14 14 13 11 10 11 6 7 6 5 5 6 6 6 6 5 5 6 6 6 5 5 5 5 5 6 6 6 6 5 5 5 4 4 4 4 3
8 9 8 3 4 11 14 15 15 15 13 11 9 9 6 5 5 5 6 6 6 6 5 5 6 6 6 6 5 5 5 5 5 5 5 4 4 4 4 4 4 4 3 3
7 7 8 7 6 9 11 13 14 14 13 11 9 7 2 3 5 6 6 6 6 6 6 6 6 7 6 6 6 6 5 5 5 5 4 4 4 4 4 3 3 3 3 2
9 7 9 9 9 9 12 12 13 12 11 10 10 5 4 4 5 5 5 6 6 6 6 6 6 6 6 6 6 6 6 6 5 5 5 4 4 4 4 4 4 3 3 3
7 8 7 7 9 12 4 4 8 10 9 7 5 3 4 3 4 4 5 6 6 7 7 6 6 6 6 7 7 7 7 6 6 5 4 4 4 4 4 4 4 3 2 2
6 8 7 8 10 7 6 5 6 8 8 6 5 3 5 5 6 5 4 5 6 7 7 6 6 7 7 7 7 7 7 6 6 5 4 4 4 4 4 4 4 3 3 3
6 7 8 8 10 9 6 6 3 6 8 4 4 5 6 7 6 6 6 7 8 7 7 7 7 7 7 7 7 7 6 6 5 5 4 4 4 4 4 4 4 3 3 3
11 9 11 10 9 4 5 5 6 9 3 3 2 4 6 3 2 7 8 7 8 8 8 8 8 7 6 6 7 7 7 6 5 5 5 5 5 5 4 4 4 4 4 4
8 9 10 9 10 5 5 5 4 4 5 2 2 3 4 5 7 8 9 9 9 9 8 8 8 8 7 6 7 8 7 6 6 6 6 6 6 5 5 5 4 4 4 4
4 2 2 3 0 6 3 2 3 2 2 2 2 4 5 7 7 9 9 8 9 9 8 8 9 8 7 6 7 8 7 6 7 7 7 7 7 6 6 5 5 4 4 4
4 1 3 3 3 2 2 2 1 1 2 2 2 4 5 7 8 9 8 8 8 8 8 8 9 9 8 7 8 8 7 7 8 9 8 7 8 8 8 6 6 5 4 4
1 3 4 4 3 3 3 2 2 2 2 3 3 4 6 8 9 9 8 8 8 8 8 8 8 9 9 8 8 7 7 8 9 9 8 8 8 9 9 10 9 8 8 7
3 3 3 1 2 1 2 2 2 2 2 3 4 5 6 8 9 9 8 9 9 9 8 8 10 10 9 9 8 8 7 7 9 8 7 6 6 7 8 9 11 16 13 15
Wind_Direction
187 206 207 204 216 242 221 213 202 178 164 211 212 206 187 186 200 199 194 191 193 196 189 187 189 191 189 188 189 191 193 188 192 196 199 198 199 201 201 202 192 198 206 203
188 217 214 205 203 217 215 213 198 171 175 223 214 215 201 197 208 207 202 200 197 193 188 189 191 193 194 191 192 192 195 193 198 200 205 208 209 207 205 211 193 205 208 210
205 196 185 193 196 207 212 214 202 185 175 209 223 221 209 202 211 211 211 208 202 196 193 191 194 195 196 195 195 197 198 197 201 200 201 198 196 214 208 209 204 208 211 214
217 175 187 197 201 205 207 210 209 199 208 201 218 233 200 199 204 209 211 209 205 200 197 193 194 197 198 198 196 198 198 200 200 201 207 206 207 210 210 212 210 208 214 220
199 189 195 203 200 206 201 181 207 214 225 230 210 246 205 188 211 211 210 209 207 199 198 196 195 196 198 197 195 196 197 200 199 202 206 211 218 218 214 215 217 224 217 224
186 189 203 204 193 199 167 168 184 216 227 229 219 236 228 198 216 213 205 206 206 200 197 196 196 193 196 197 198 197 195 199 199 202 207 211 219 220 221 221 219 219 218 221
186 191 194 195 183 186 192 187 190 200 212 223 197 229 237 191 213 224 217 206 204 200 196 193 194 193 194 197 198 198 195 198 199 202 206 209 217 219 223 228 225 228 225 219
189 188 187 193 197 188 203 209 218 215 212 196 183 228 217 165 205 220 220 210 201 195 193 191 190 190 191 193 195 195 195 197 197 200 205 208 211 215 221 222 232 227 233 233
195 185 175 193 202 203 200 217 235 249 237 224 194 204 204 190 198 197 195 194 192 188 185 187 188 188 188 189 190 192 192 195 197 199 201 203 207 213 218 216 221 229 229 230
197 178 174 180 193 213 219 206 211 229 221 222 208 210 205 181 189 182 177 174 169 169 169 174 178 182 182 183 184 187 189 191 194 197 200 200 203 206 211 216 218 224 230 235
201 188 168 180 198 189 197 203 212 220 237 235 211 194 155 174 178 178 163 154 150 155 158 163 165 170 173 174 174 176 181 185 188 193 196 200 198 199 202 209 215 218 223 228
203 209 179 185 187 214 203 205 206 210 211 242 250 146 116 147 153 156 142 135 129 132 134 143 151 156 162 168 168 167 173 181 183 183 187 195 196 195 197 198 204 207 213 223
183 203 179 177 185 200 208 208 212 223 219 225 233 164 127 148 149 144 141 135 129 130 127 130 139 147 156 161 161 162 169 174 174 173 178 184 189 190 192 192 192 196 204 216
204 211 226 204 185 181 196 200 208 215 221 219 232 213 162 173 169 155 150 144 138 133 131 135 138 141 143 148 151 157 161 158 159 166 172 175 178 182 184 183 184 186 197 212
213 207 220 230 162 185 195 199 203 216 229 235 226 232 202 187 180 163 158 154 144 135 131 131 136 133 135 137 139 142 144 143 148 153 158 163 166 169 171 174 179 180 192 205
211 216 201 196 187 195 201 201 204 214 227 237 238 230 194 153 156 161 164 162 152 140 131 124 126 124 124 128 132 132 132 132 135 138 143 146 155 153 153 165 171 166 170 175
190 205 207 198 183 196 209 205 205 207 217 229 231 222 165 171 171 167 161 159 151 140 130 127 123 119 119 123 127 129 130 130 133 135 136 137 144 147 155 159 149 142 143 137
195 207 214 198 186 214 166 176 214 214 216 229 239 195 172 165 148 146 156 157 149 138 131 126 120 115 114 115 121 126 129 130 130 129 128 127 134 138 142 134 131 134 130 117
207 213 216 208 205 201 167 177 203 211 212 216 219 173 138 137 143 137 136 138 135 129 123 122 121 118 116 116 122 126 125 125 126 128 129 128 133 136 137 126 128 132 124 112
186 222 227 212 216 211 166 141 177 222 208 176 196 176 158 180 196 141 124 123 121 117 115 117 117 113 112 116 122 124 118 115 118 122 127 128 124 123 121 121 123 122 124 122
183 198 219 213 216 193 103 133 186 214 138 91 162 172 176 193 41 109 125 122 121 119 115 117 116 110 108 115 119 115 110 109 111 111 108 106 105 109 108 106 108 116 120 115
199 193 204 215 219 183 114 178 202 53 52 69 114 133 131 99 103 118 121 124 125 121 118 118 113 107 105 112 117 111 104 107 106 102 98 93 90 91 97 100 100 102 110 109
232 273 225 233 111 73 100 80 52 39 38 56 96 111 116 121 119 119 119 121 120 119 117 115 113 108 101 101 106 106 104 106 105 101 95 92 88 81 82 87 90 92 91 89
169 236 235 195 150 118 107 101 77 54 55 64 105 119 127 125 124 123 120 118 118 117 116 117 116 110 101 95 94 97 100 103 102 96 92 90 88 82 74 67 64 64 62 76
179 194 208 203 170 161 138 97 65 67 79 96 106 118 128 128 126 124 121 120 119 116 114 112 110 106 102 99 96 96 100 105 102 98 95 90 84 82 75 65 52 55 49 39
223 234 238 180 136 208 116 76 55 74 88 101 115 121 125 126 126 123 119 119 119 117 114 110 107 105 102 99 93 89 93 102 106 104 99 95 94 92 93 93 80 60 63 62